Location: El Azufral
(10.3513°N, 67.1528°W)
Time: 19:32:50
(UTC+00:00)

Helios 1B rocket - Pass Details

Date: 13 June 2024
Orbit: 533 x 540 km, 98.2° (Epoch: 24 July)

Event Time Altitude Azimuth Distance (km) Brightness Sun altitude
Rises 23:00:13 0° 173° (S) 2,693 5.5 -3.0°
Reaches altitude 10° 23:02:20 10° 175° (S) 1,799 4.7 -3.5°
Maximum altitude 23:06:12 68° 258° (WSW) 582 2.7 -4.3°
Drops below altitude 10° 23:10:02 10° 342° (NNW) 1,790 5.6 -5.2°
Sets 23:12:09 0° 344° (NNW) 2,678 6.5 -5.6°
